SCP
0 0 0 0 0 0 0 0 1 1 1 1 1 1 1 2 2 2 2 2 2 2 3 5 5 4 3 3 3 3 3 4 4 4 4 3 3 3 3 2 2 2 2 2
0 0 0 0 0 0 0 0 1 1 1 1 1 1 2 2 2 2 2 2 2 2 4 5 5 4 3 3 3 4 4 4 5 5 5 4 3 3 3 2 2 2 2 2
0 0 0 0 0 0 0 0 0 0 1 1 1 1 1 1 2 2 3 3 3 3 4 5 5 4 3 3 4 4 4 4 5 5 5 4 3 3 2 2 2 3 3 3
0 0 0 0 0 0 0 0 0 0 0 1 1 1 1 1 1 2 3 4 4 4 4 4 4 3 3 3 3 4 4 4 5 5 5 4 3 3 2 2 3 4 3 3
0 0 0 0 0 0 0 0 0 0 0 0 1 1 1 1 1 2 3 3 4 3 3 3 3 3 3 3 4 4 5 5 6 6 6 5 5 4 3 4 4 3 2 2
0 0 0 0 0 0 0 0 0 0 0 0 0 0 1 1 1 2 2 3 3 3 2 2 2 3 3 4 5 6 6 7 8 8 7 7 6 5 4 4 3 2 2 2
0 0 0 0 0 0 0 0 0 0 0 0 0 1 1 1 1 2 2 3 3 3 2 2 2 3 4 6 6 6 7 7 8 8 7 7 6 4 4 3 3 2 2 2
0 0 0 0 0 0 0 0 0 0 0 0 0 1 1 1 2 2 2 2 3 3 2 2 3 4 5 6 5 5 5 5 5 5 5 5 4 4 4 3 3 2 2 2
0 0 0 0 0 0 0 0 0 0 0 0 0 1 1 1 2 2 2 2 3 3 3 3 4 4 4 4 3 3 3 3 3 3 3 3 4 4 3 3 2 2 2 1
0 0 0 0 0 0 0 0 0 0 0 0 0 0 1 1 2 2 2 2 3 3 3 3 4 4 3 3 3 3 2 2 3 3 3 3 3 3 3 2 2 2 1 1
0 0 0 0 0 0 0 0 0 0 0 0 0 0 1 1 2 2 2 2 2 2 3 4 4 3 3 3 3 3 2 2 2 3 3 3 3 3 3 3 2 2 2 1
0 0 0 0 0 0 0 0 0 0 0 0 0 0 1 1 2 3 3 3 2 2 3 4 4 3 2 2 2 3 3 2 2 2 2 2 2 3 3 2 2 2 2 2
0 0 0 0 0 0 0 0 0 0 0 0 0 1 1 1 2 3 4 4 2 2 3 3 3 3 2 2 2 3 3 3 3 3 2 2 2 2 2 2 2 2 2 1
0 0 0 0 0 0 0 0 0 0 0 0 0 0 1 1 1 2 3 4 3 2 2 2 2 2 2 2 2 3 3 3 3 3 3 2 2 1 1 1 1 1 1 1
1 1 0 0 0 0 1 1 1 0 0 0 0 0 1 1 1 1 3 3 2 1 1 1 2 2 2 2 2 3 3 2 3 3 2 2 1 1 1 1 1 1 1 1
1 1 0 0 0 0 0 1 1 1 1 0 0 0 1 1 1 1 2 3 2 1 1 1 2 2 2 2 3 3 2 2 2 2 2 2 1 1 1 1 1 1 1 1
1 1 0 0 0 0 0 0 0 1 1 1 1 1 1 1 1 1 2 3 2 1 1 1 2 2 2 2 3 3 2 2 2 2 2 2 1 1 1 1 1 1 1 0
1 1 1 0 0 0 0 0 0 1 1 1 1 1 1 1 1 1 2 3 2 1 1 1 1 1 2 2 3 3 2 2 1 2 2 2 1 1 1 1 0 0 0 0
1 1 0 0 0 0 0 1 1 1 1 1 1 1 1 1 1 1 1 2 2 1 1 1 1 1 2 2 3 3 2 1 1 2 2 2 1 1 1 0 0 0 1 1
1 1 0 0 0 0 0 1 0 1 1 1 1 1 1 1 1 1 1 1 1 1 1 1 1 1 2 2 2 2 2 2 1 2 1 1 1 1 1 1 1 0 0 1
1 0 0 0 0 0 0 0 0 1 1 1 1 1 1 1 1 2 2 1 1 1 1 2 2 2 2 2 2 2 2 2 2 2 1 1 1 1 1 1 1 1 0 0
1 1 0 0 0 0 0 0 0 1 1 1 1 1 1 1 1 2 2 1 1 1 1 2 2 2 2 2 2 3 3 3 3 2 2 1 1 1 1 1 1 1 1 0
1 1 1 1 1 1 0 0 1 1 0 0 1 1 1 1 1 1 1 1 1 1 1 1 1 1 2 2 2 2 3 3 3 2 2 1 1 1 1 1 1 0 0 0
1 1 1 1 1 1 1 0 0 0 0 0 1 1 1 1 1 1 1 1 1 1 1 1 1 1 1 1 1 1 1 2 2 2 1 1 1 0 0 0 0 0 0 0
0 0 0 1 1 1 1 1 0 0 0 0 0 0 0 1 1 1 1 1 1 1 1 1 1 1 1 1 1 1 1 1 1 1 1 1 0 0 0 0 0 0 0 0
0 0 0 1 1 1 1 1 0 0 0 0 0 0 0 0 1 1 1 1 1 0 1 1 1 1 1 1 1 0 0 0 0 0 0 0 0 0 0 0 0 0 0 0
Wind_Speed
6 9 8 5 6 4 4 6 5 4 3 6 7 7 7 8 8 9 9 9 9 8 8 7 7 7 7 7 7 7 7 7 6 5 4 4 4 3 2 2 2 1 1 1
8 8 3 3 5 6 6 7 6 4 3 5 5 6 7 8 10 9 9 9 9 8 8 7 7 8 8 7 7 7 7 7 6 5 3 2 2 2 2 2 2 1 1 1
7 1 3 5 7 8 8 8 6 4 4 5 6 8 9 8 7 7 8 7 8 9 9 8 8 8 8 7 7 6 6 7 6 6 4 4 3 3 3 2 2 1 1 2
5 3 6 7 7 8 7 4 5 6 6 6 7 8 7 8 8 9 9 9 9 8 8 8 8 7 7 7 6 6 6 6 6 6 5 5 3 3 2 2 2 2 1 1
4 5 7 8 5 7 3 3 6 7 8 8 9 9 5 8 9 10 10 10 9 9 8 8 8 7 7 7 6 6 6 6 6 5 5 5 3 3 2 2 2 1 1 1
5 4 5 3 2 4 4 6 7 8 9 11 9 9 6 6 8 8 9 9 8 7 7 7 7 7 7 7 7 7 6 6 5 5 5 4 4 3 3 2 2 1 1 0
7 7 6 5 6 7 8 8 6 8 8 7 5 8 4 1 2 5 6 7 6 7 7 7 7 8 8 8 7 7 7 6 5 5 4 4 4 4 4 2 2 0 0 0
5 6 7 7 7 5 8 9 8 7 7 5 6 7 1 3 2 2 3 5 6 6 7 7 7 7 7 8 7 7 7 7 6 5 4 4 3 2 2 2 0 0 1 2
4 2 5 4 5 7 7 8 7 9 9 8 5 4 3 5 4 4 4 5 6 6 6 7 7 7 7 7 7 7 7 7 6 5 5 4 4 2 2 2 1 1 1 1
4 4 4 4 6 6 7 5 6 8 7 8 6 6 3 6 5 5 4 4 5 6 6 7 6 6 6 7 7 6 6 7 7 6 5 4 4 3 2 2 2 1 0 0
5 5 5 7 8 7 7 8 8 7 7 8 6 1 4 3 5 5 5 5 5 6 6 6 6 6 7 7 7 7 6 6 6 5 5 4 4 3 3 2 2 1 0 0
4 5 6 6 3 4 8 8 8 8 7 8 8 1 5 4 5 5 5 5 5 6 6 7 7 7 7 7 7 6 6 6 6 5 5 4 4 4 3 3 2 1 0 1
3 5 6 6 7 8 8 8 9 9 8 8 8 1 6 5 5 5 5 6 6 7 7 7 7 7 6 6 6 6 6 5 5 5 5 5 4 3 3 2 1 1 0 1
4 6 8 8 5 4 6 8 9 10 9 8 8 5 4 4 5 5 6 6 7 7 7 7 7 6 6 6 6 6 5 5 5 5 5 4 3 3 2 2 1 0 1 1
5 8 8 8 7 7 8 8 9 10 11 11 8 6 3 3 5 6 6 7 8 8 7 7 7 6 6 6 6 6 6 5 5 5 4 4 3 3 2 1 1 1 1 1
4 7 7 8 7 7 9 9 10 10 9 9 8 5 1 3 5 6 7 8 8 8 8 7 7 7 7 6 6 6 5 5 5 4 4 3 3 3 2 2 1 1 1 1
5 6 7 7 5 8 8 7 8 7 7 7 8 2 4 5 6 7 7 8 8 8 7 7 7 7 7 7 6 6 5 5 4 4 4 3 3 3 2 2 1 1 1 1
7 7 6 6 6 8 1 1 4 6 5 5 3 2 4 3 3 5 6 7 7 7 7 7 7 7 7 7 6 6 6 5 5 5 4 4 3 3 2 1 1 1 1 1
9 7 6 6 8 7 3 3 4 5 5 3 3 3 3 4 5 5 5 6 6 6 5 6 6 7 7 7 7 7 6 5 5 5 5 4 3 3 2 1 1 1 2 2
8 8 7 6 7 6 1 3 1 5 5 3 4 5 5 6 5 4 7 6 6 6 5 6 7 7 8 7 7 7 6 6 5 5 4 4 3 3 2 1 1 1 2 2
7 8 9 9 8 4 2 3 4 6 2 3 3 5 6 4 2 7 8 7 7 6 6 6 7 7 7 7 8 7 7 6 5 5 4 3 3 2 2 1 1 2 2 2
6 6 7 7 7 2 4 5 3 3 3 3 3 4 5 5 7 8 8 8 8 7 7 6 6 6 7 8 8 8 7 5 5 4 4 3 3 2 2 1 2 2 2 2
5 4 4 4 2 4 1 1 2 2 2 2 4 5 6 7 7 8 8 8 7 7 6 6 7 7 7 7 8 7 6 5 5 4 4 3 3 2 2 2 2 2 3 3
3 2 4 4 2 1 2 2 1 1 2 3 4 6 7 7 8 9 8 7 7 7 7 6 7 7 7 7 7 6 6 5 5 4 4 3 3 3 2 2 2 2 2 2
4 4 5 6 3 3 3 2 2 3 4 5 6 6 7 8 8 8 8 7 6 6 6 6 5 6 7 7 6 6 6 6 5 4 4 3 3 2 2 2 2 3 2 3
7 7 7 5 3 3 2 3 4 5 5 6 7 8 8 8 9 9 8 7 7 6 6 6 6 6 6 6 6 6 5 5 5 4 3 3 2 2 2 1 1 1 3 3
Wind_Direction
202 226 217 208 233 270 243 227 208 190 181 221 225 216 199 191 198 199 194 189 189 184 173 167 164 163 163 168 169 169 170 166 168 165 170 166 162 158 144 127 105 93 55 30
213 220 221 223 231 239 232 222 203 182 180 235 233 230 214 205 208 209 206 199 193 185 173 173 173 170 172 174 174 175 176 174 178 169 169 162 152 150 126 104 96 85 68 4
239 164 166 216 212 222 227 232 218 202 185 215 231 232 219 205 208 211 213 206 196 192 187 182 182 182 175 176 179 177 174 175 175 167 157 143 144 154 146 139 128 89 69 50
238 206 214 223 221 228 224 214 211 205 224 225 226 259 216 196 202 208 209 202 196 193 187 186 184 183 182 181 176 172 172 173 169 168 164 167 173 163 150 159 125 117 100 61
212 200 221 231 228 233 249 187 215 224 241 252 229 255 228 188 210 209 205 202 197 192 187 188 184 180 178 177 170 165 164 164 165 167 167 177 177 159 149 140 131 156 114 98
249 231 244 245 219 218 196 198 211 227 238 243 236 250 247 196 215 206 193 190 191 187 184 181 175 172 173 166 163 157 152 157 162 166 167 169 162 154 158 165 151 188 157 157
208 204 198 206 200 185 210 224 230 228 229 243 208 241 261 157 202 211 194 186 179 173 174 171 172 174 169 160 154 151 150 148 151 153 154 154 153 160 170 181 156 228 309 27
231 201 185 200 231 233 222 246 264 271 267 262 211 242 220 118 130 167 177 169 163 164 166 170 173 169 164 158 154 153 149 145 148 144 137 134 146 162 150 140 131 59 7 24
259 222 156 196 232 247 231 239 279 280 275 272 244 233 187 163 167 169 169 166 162 162 164 162 161 157 156 154 155 153 149 146 146 142 140 136 142 146 133 142 166 96 47 48
269 257 209 188 210 213 265 267 250 261 272 272 255 242 220 172 177 170 164 163 157 159 161 158 155 152 149 148 149 151 151 150 149 150 150 143 150 150 142 149 122 92 101 82
248 254 224 213 228 229 216 230 250 265 280 281 279 301 56 148 165 170 162 158 158 160 159 155 151 144 141 144 148 147 148 150 149 148 148 151 149 144 148 150 146 136 119 24
229 259 254 244 229 256 244 245 242 258 264 268 284 318 88 117 138 149 149 145 151 156 154 151 147 141 143 148 150 150 154 154 152 151 153 153 149 150 155 141 131 128 100 333
209 241 247 226 200 203 230 237 245 256 271 268 273 262 118 138 141 140 145 143 147 151 151 150 150 147 149 152 154 155 153 152 154 157 157 154 160 159 152 136 130 129 128 313
258 253 264 281 300 276 243 234 238 249 259 269 274 278 179 175 171 157 152 152 152 157 158 159 158 154 153 156 156 154 148 151 159 159 158 156 160 158 155 149 156 204 266 285
257 257 265 276 278 263 259 252 241 247 267 280 289 282 249 189 173 161 156 155 157 163 166 169 168 160 159 161 160 158 152 154 161 160 156 151 150 149 147 161 198 239 265 283
262 270 265 258 251 253 259 255 248 251 259 269 276 282 167 143 152 159 165 168 170 170 173 174 173 167 166 166 163 160 155 155 160 161 156 151 153 150 153 181 220 255 281 302
244 250 259 261 258 253 246 247 246 249 252 266 273 269 169 180 180 176 176 179 176 172 171 174 175 173 170 168 166 163 159 158 159 156 152 150 152 154 171 185 192 243 279 311
248 251 258 265 258 253 314 124 250 261 262 261 277 213 196 188 172 165 178 178 171 170 172 173 173 170 169 164 163 160 159 163 164 162 163 162 164 164 173 192 204 248 266 286
228 242 254 258 257 263 218 192 218 245 250 233 225 199 171 142 157 162 162 163 163 164 166 165 165 164 162 163 162 163 164 169 174 170 167 166 166 165 177 200 247 260 268 284
202 230 247 251 265 268 95 118 197 255 235 166 191 190 177 188 220 144 143 151 152 150 150 154 159 159 160 164 166 168 171 177 179 173 169 167 171 180 196 216 246 264 270 275
199 213 232 245 256 266 74 130 196 248 33 115 173 183 187 201 39 107 137 143 143 146 148 152 157 160 164 168 169 173 179 184 180 174 174 176 184 190 201 220 246 255 258 275
242 235 228 240 250 247 127 177 225 21 77 134 142 158 162 125 110 124 132 136 141 145 149 153 157 160 163 169 174 177 180 178 173 172 177 180 190 209 200 220 251 259 262 257
254 288 291 282 324 58 130 156 67 73 124 134 140 142 143 138 133 133 133 136 141 143 145 151 152 153 157 167 174 173 169 170 168 171 179 186 196 208 223 236 246 253 248 261
231 257 256 256 238 210 186 160 155 142 140 134 142 146 149 141 137 138 135 138 141 142 146 151 153 154 156 164 168 165 163 168 170 176 182 188 199 208 211 244 252 268 281 283
271 239 249 249 241 218 204 193 166 139 131 135 141 148 149 142 141 137 135 137 138 142 145 149 153 153 154 156 160 164 164 167 172 179 188 196 199 201 231 252 297 294 314 319
242 245 256 270 245 250 192 172 165 157 148 145 147 146 147 144 141 138 136 137 142 144 144 146 151 151 151 156 161 163 164 169 174 179 190 200 201 208 231 229 227 251 258 250